NOAA 16 DEB, 41149

Orbit data source: Space-Track

NOAA 16 DEB, 41149 is space debris in SSO originally from a launch on Thu, 21 Sep 2000 UTC launched from the Air Force Western Test Range (AFWTR). Debris objects in space refer to the collection of defunct objects orbiting the Earth. Examples of debris include non-operational satellites, rocket bodies, and fragments generated from explosions, collisions, or faulty payload assembly.

Loading next visibility...
Identifier
41149, 2000-055CG
Orbit
SSO
Country
Flag of USUS
Related business
Manufacturer
Unknown
Mission
Spacecraft
Bus & Motor
Unknown
Mass
Unknown
Launch date (UTC)
2000-09-21 (26 years ago)
Launch vehicle
Unknown
Launch site
Air Force Western Test Range (AFWTR)
Object type
Payload
Rocket body
Debris
Shape & HBR
Unknown shape, 0.1 m
Radar Cross Section
Medium (>0.1 m² and <1 m²)

Expand to show TLE details & history
Last TLE update: 3 days ago

TLE from 3 days ago
0 NOAA 16 DEB
1 41149U 00055CG  26170.72121482  .00022388  00000-0  25929-2 0  9994
2 41149  98.9199  86.9018 0026834 278.5996  81.2175 14.85243499554138
Epoch: 2026-06-19T17:18Z
TLE epoch observation values (Epoch: 2026-06-19T17:18:32.960Z)
Latitude
-0.00007°
Longitude
-80.68165°
Altitude
613.002 km
Speed
7.554 km/s
True Right ascension
05h 47m 36s
True Declination
0° 00' 00"
Sunlit
Object was in daylight at epoch
Visualization orbit readout
Latitude
Unknown
Longitude
Unknown
Altitude
Unknown
Speed
Unknown
Apparent Right ascension
Unknown
Apparent Declination
Unknown
Sunlit
N/A
Visualization observer readout
Local Sidereal Time
21:42:26
Azimuth
Unknown
Elevation
Unknown
Doppler factor
Unknown
Orbital elements
Apogee altitude
628.656 km
Perigee altitude
591.152 km
Semi-major axis
6,988.041 km
Eccentricity
0.00268
Inclination
98.9199°
RAAN
86.9018°
Arg. of periapsis
278.5996°
True anomaly
81.52154°
Mean anomaly
81.2175°
Eccentric anomaly
81.36951°
Mean motion
3.71544 °/min
Orbital period
96.89 mins
BSTAR
0.0025929
Loading maneuver chart data...
Computing Atmospheric mass density...
Loading historical data...
Loading historical data...
Loading historical data...
Loading historical data...
Loading historical data...
Loading historical data...
Loading historical data...

Documentation

Showing up to 5 results
|